Time,TemperatureF,DewpointF,PressureIn,WindDirection,WindDirectionDegrees,WindSpeedMPH,WindSpeedGustMPH,Humidity,HourlyPrecipIn,Conditions,Clouds,dailyrainin,SoftwareType,DateUTC
2013-09-01 08:42:00,62.0,-99.9,29.80,North,360,5.0,6.0,0,-99.99,,,0.00,,2013-09-01 12:42:00,
2013-09-01 08:52:00,62.0,-99.9,29.80,North,360,5.0,6.0,0,-99.99,,,0.00,,2013-09-01 12:52:00,
2013-09-01 09:02:00,62.0,-99.9,29.80,North,360,5.0,6.0,0,-99.99,,,0.00,,2013-09-01 13:02:00,
2013-09-01 09:42:00,66.0,-99.9,29.79,NW,315,5.0,10.0,0,-99.99,,,0.00,,2013-09-01 13:42:00,
2013-09-01 09:52:00,66.0,-99.9,29.79,NW,315,5.0,10.0,0,-99.99,,,0.00,,2013-09-01 13:52:00,
2013-09-01 10:02:00,66.0,-99.9,29.79,NW,315,5.0,10.0,0,-99.99,,,0.00,,2013-09-01 14:02:00,
2013-09-01 10:52:00,67.0,-99.9,29.81,NNW,337,5.0,12.0,0,-99.99,,,0.00,,2013-09-01 14:52:00,
2013-09-01 11:02:00,67.0,-99.9,29.81,NNW,337,5.0,12.0,0,-99.99,,,0.00,,2013-09-01 15:02:00,
2013-09-01 11:03:00,68.0,-99.9,29.81,NNE,22,7.0,13.0,0,-99.99,,,0.00,,2013-09-01 15:03:00,
2013-09-01 11:45:00,68.0,-99.9,29.81,NNE,22,7.0,13.0,0,-99.99,,,0.00,,2013-09-01 15:45:00,
2013-09-01 11:55:00,68.0,-99.9,29.81,NNE,22,7.0,13.0,0,-99.99,,,0.00,,2013-09-01 15:55:00,
2013-09-01 12:03:00,70.0,-99.9,29.82,NNE,22,9.0,15.0,0,-99.99,,,0.00,,2013-09-01 16:03:00,
2013-09-01 12:43:00,70.0,-99.9,29.82,NNE,22,9.0,15.0,0,-99.99,,,0.00,,2013-09-01 16:43:00,
2013-09-01 12:53:00,70.0,-99.9,29.82,NNE,22,9.0,15.0,0,-99.99,,,0.00,,2013-09-01 16:53:00,
2013-09-01 13:42:00,71.0,-99.9,29.83,North,360,6.0,16.0,0,-99.99,,,0.00,,2013-09-01 17:42:00,
2013-09-01 13:52:00,71.0,-99.9,29.83,North,360,6.0,16.0,0,-99.99,,,0.00,,2013-09-01 17:52:00,
2013-09-01 14:02:00,71.0,-99.9,29.83,North,360,6.0,16.0,0,-99.99,,,0.00,,2013-09-01 18:02:00,
2013-09-01 14:42:00,72.0,-99.9,29.85,NW,315,6.0,17.0,0,-99.99,,,0.00,,2013-09-01 18:42:00,
2013-09-01 14:52:00,72.0,-99.9,29.85,NW,315,6.0,17.0,0,-99.99,,,0.00,,2013-09-01 18:52:00,
2013-09-01 15:02:00,72.0,-99.9,29.85,NW,315,6.0,17.0,0,-99.99,,,0.00,,2013-09-01 19:02:00,
2013-09-01 15:03:00,72.0,-99.9,29.84,NNW,337,10.0,13.0,0,-99.99,,,0.00,,2013-09-01 19:03:00,
2013-09-01 15:42:00,72.0,-99.9,29.84,NNW,337,10.0,13.0,0,-99.99,,,0.00,,2013-09-01 19:42:00,
2013-09-01 15:52:00,72.0,-99.9,29.84,NNW,337,10.0,13.0,0,-99.99,,,0.00,,2013-09-01 19:52:00,
2013-09-01 16:42:00,72.0,-99.9,29.85,NNE,22,8.0,13.0,0,-99.99,,,0.00,,2013-09-01 20:42:00,
2013-09-01 16:52:00,72.0,-99.9,29.85,NNE,22,8.0,13.0,0,-99.99,,,0.00,,2013-09-01 20:52:00,
2013-09-01 17:02:00,72.0,-99.9,29.85,NNE,22,8.0,13.0,0,-99.99,,,0.00,,2013-09-01 21:02:00,
2013-09-01 17:03:00,72.0,-99.9,29.85,North,360,6.0,11.0,0,-99.99,,,0.00,,2013-09-01 21:03:00,
2013-09-01 17:44:00,72.0,-99.9,29.85,North,360,6.0,11.0,0,-99.99,,,0.00,,2013-09-01 21:44:00,
2013-09-01 17:55:00,72.0,-99.9,29.85,North,360,6.0,11.0,0,-99.99,,,0.00,,2013-09-01 21:55:00,
2013-09-01 18:03:00,70.0,-99.9,29.88,North,360,4.0,10.0,0,-99.99,,,0.00,,2013-09-01 22:03:00,
2013-09-01 18:43:00,70.0,-99.9,29.88,North,360,4.0,10.0,0,-99.99,,,0.00,,2013-09-01 22:43:00,
2013-09-01 18:54:00,70.0,-99.9,29.88,North,360,4.0,10.0,0,-99.99,,,0.00,,2013-09-01 22:54:00,
2013-09-01 19:42:00,65.0,-99.9,29.91,NW,315,0.0,7.0,0,-99.99,,,0.00,,2013-09-01 23:42:00,
2013-09-01 19:53:00,65.0,-99.9,29.91,NW,315,0.0,7.0,0,-99.99,,,0.00,,2013-09-01 23:53:00,
2013-09-01 20:02:00,65.0,-99.9,29.91,NW,315,0.0,7.0,0,-99.99,,,0.00,,2013-09-02 00:02:00,
2013-09-01 20:42:00,61.0,-99.9,29.93,SSE,157,0.0,5.0,0,-99.99,,,-99.99,,2013-09-02 00:42:00,
2013-09-01 20:52:00,61.0,-99.9,29.93,SSE,157,0.0,5.0,0,-99.99,,,-99.99,,2013-09-02 00:52:00,
2013-09-01 21:02:00,61.0,-99.9,29.93,SSE,157,0.0,5.0,0,-99.99,,,-99.99,,2013-09-02 01:02:00,
2013-09-01 21:42:00,58.0,-99.9,29.94,SSE,157,0.0,0.0,0,-99.99,,,0.00,,2013-09-02 01:42:00,
2013-09-01 21:53:00,58.0,-99.9,29.94,SSE,157,0.0,0.0,0,-99.99,,,0.00,,2013-09-02 01:53:00,
2013-09-01 22:02:00,58.0,-99.9,29.94,SSE,157,0.0,0.0,0,-99.99,,,0.00,,2013-09-02 02:02:00,
2013-09-01 22:52:00,56.0,-99.9,29.95,ENE,67,0.0,3.0,0,-99.99,,,0.00,,2013-09-02 02:52:00,
2013-09-01 23:02:00,56.0,-99.9,29.95,ENE,67,0.0,3.0,0,-99.99,,,0.00,,2013-09-02 03:02:00,
2013-09-01 23:03:00,58.0,-99.9,29.96,ENE,67,0.0,0.0,0,-99.99,,,0.00,,2013-09-02 03:03:00,
2013-09-01 23:44:00,58.0,-99.9,29.96,ENE,67,0.0,0.0,0,-99.99,,,0.00,,2013-09-02 03:44:00,
2013-09-01 23:56:00,58.0,-99.9,29.96,ENE,67,0.0,0.0,0,-99.99,,,0.00,,2013-09-02 03:56:00,